CMP319 SMJP-MPTO

Flight info

Callsign CMP319
Flight time N/A
Altitude 36000
Route GEBON UG443 TIM UP549 EDRUG/N0459F380 UP549 ISLAG UP650 ESEDA MEVID1
Aircraft B738/M-SDE2E3FGHIRWXY/LB1

Departure

Time 2026-04-14 23:45
Airport Johan Adolf Pengel International Airport (SMJP)

Arrival

Time N/A
Airport Tocumen International Airport (MPTO)
Time Latitude Longitude Altitude Speed Heading
2026-04-14 23:19 5.45528 -55.19869 60 ft 0 kts 58°
2026-04-14 23:36 5.45530 -55.19867 54 ft 0 kts 55°
2026-04-14 23:36 5.45535 -55.19859 57 ft 3 kts 58°
2026-04-14 23:37 5.45529 -55.19836 60 ft 4 kts 142°
2026-04-14 23:37 5.45504 -55.19840 57 ft 4 kts 206°
2026-04-14 23:37 5.45483 -55.19852 55 ft 3 kts 211°
2026-04-14 23:37 5.45463 -55.19865 58 ft 3 kts 221°
2026-04-14 23:38 5.45450 -55.19884 58 ft 3 kts 239°
2026-04-14 23:38 5.45446 -55.19905 60 ft 3 kts 268°
2026-04-14 23:38 5.45445 -55.19927 59 ft 3 kts 270°
2026-04-14 23:38 5.45444 -55.19950 59 ft 4 kts 264°
2026-04-14 23:39 5.45444 -55.19979 59 ft 6 kts 275°
2026-04-14 23:39 5.45446 -55.20031 59 ft 7 kts 266°
2026-04-14 23:39 5.45445 -55.20080 59 ft 7 kts 269°
2026-04-14 23:39 5.45444 -55.20128 60 ft 7 kts 268°
2026-04-14 23:40 5.45443 -55.20175 60 ft 7 kts 269°
2026-04-14 23:40 5.45443 -55.20221 60 ft 7 kts 270°
2026-04-14 23:40 5.45443 -55.20266 59 ft 6 kts 270°
2026-04-14 23:40 5.45443 -55.20310 58 ft 6 kts 268°
2026-04-14 23:41 5.45428 -55.20336 55 ft 4 kts 218°
2026-04-14 23:41 5.45412 -55.20343 57 ft 2 kts 203°
2026-04-14 23:41 5.45401 -55.20347 57 ft 3 kts 199°
2026-04-14 23:41 5.45370 -55.20354 56 ft 6 kts 186°
2026-04-14 23:42 5.45329 -55.20351 53 ft 6 kts 169°
2026-04-14 23:42 5.45292 -55.20338 49 ft 6 kts 153°
2026-04-14 23:42 5.45276 -55.20309 55 ft 4 kts 91°
2026-04-14 23:42 5.45276 -55.20306 53 ft 0 kts 90°
2026-04-14 23:44 5.45278 -55.20231 56 ft 38 kts 88°
2026-04-14 23:44 5.45283 -55.19709 60 ft 109 kts 89°
2026-04-14 23:45 5.45301 -55.18750 172 ft 156 kts 85°
2026-04-14 23:45 5.45357 -55.17626 794 ft 164 kts 84°
2026-04-14 23:45 5.45473 -55.16509 1756 ft 150 kts 79°
2026-04-14 23:45 5.45907 -55.15588 2554 ft 158 kts 46°
2026-04-14 23:46 5.47032 -55.15089 2810 ft 200 kts
2026-04-14 23:46 5.48407 -55.15556 3178 ft 229 kts 324°
2026-04-14 23:46 5.49295 -55.16969 3524 ft 256 kts 284°
2026-04-14 23:46 5.49418 -55.18836 3827 ft 279 kts 268°
2026-04-14 23:47 5.49305 -55.20814 4521 ft 286 kts 266°
2026-04-14 23:47 5.49245 -55.22794 5504 ft 283 kts 270°
2026-04-14 23:47 5.49332 -55.24783 6349 ft 287 kts 275°
2026-04-14 23:47 5.49570 -55.26789 7111 ft 291 kts 279°
2026-04-14 23:48 5.49932 -55.28807 7880 ft 295 kts 282°
2026-04-14 23:48 5.50385 -55.30808 8661 ft 299 kts 284°
2026-04-14 23:48 5.50914 -55.32838 9435 ft 303 kts 285°
2026-04-14 23:48 5.51497 -55.34883 10165 ft 308 kts 287°
2026-04-14 23:49 5.52140 -55.37010 10434 ft 330 kts 287°
2026-04-14 23:49 5.52858 -55.39287 10611 ft 353 kts 288°
2026-04-14 23:49 5.53637 -55.41689 10924 ft 368 kts 288°
2026-04-14 23:49 5.54449 -55.44147 11515 ft 373 kts 288°
2026-04-14 23:50 5.55274 -55.46619 12209 ft 375 kts 289°
2026-04-14 23:50 5.56110 -55.49108 12859 ft 378 kts 289°
2026-04-14 23:50 5.56956 -55.51617 13488 ft 381 kts 289°
2026-04-14 23:50 5.57810 -55.54146 14071 ft 384 kts 289°
2026-04-14 23:51 5.58670 -55.56693 14625 ft 387 kts 289°
2026-04-14 23:51 5.59537 -55.59258 15218 ft 388 kts 289°
2026-04-14 23:51 5.60407 -55.61832 15792 ft 390 kts 289°
2026-04-14 23:51 5.61281 -55.64419 16354 ft 393 kts 288°
2026-04-14 23:52 5.62162 -55.67026 16884 ft 396 kts 288°
2026-04-14 23:52 5.63047 -55.69646 17429 ft 398 kts 288°
2026-04-14 23:52 5.63938 -55.72283 17964 ft 400 kts 288°
2026-04-14 23:52 5.64833 -55.74933 18444 ft 402 kts 288°
2026-04-14 23:53 5.65735 -55.77606 18880 ft 405 kts 288°
2026-04-14 23:53 5.66640 -55.80288 19313 ft 407 kts 288°
2026-04-14 23:53 5.67551 -55.82987 19743 ft 409 kts 288°
2026-04-14 23:53 5.68468 -55.85704 20159 ft 412 kts 288°
2026-04-14 23:54 5.69388 -55.88433 20589 ft 414 kts 288°
2026-04-14 23:54 5.70301 -55.91139 20994 ft 416 kts 288°
2026-04-14 23:54 5.71232 -55.93899 21372 ft 419 kts 288°
2026-04-14 23:54 5.72170 -55.96680 21755 ft 421 kts 288°
2026-04-14 23:55 5.73110 -55.99469 22146 ft 423 kts 288°
2026-04-14 23:55 5.74055 -56.02272 22530 ft 425 kts 287°
2026-04-14 23:55 5.75003 -56.05090 22888 ft 427 kts 287°
2026-04-14 23:55 5.75958 -56.07924 23226 ft 430 kts 287°
2026-04-14 23:56 5.76919 -56.10774 23569 ft 431 kts 287°
2026-04-14 23:56 5.77883 -56.13637 23831 ft 434 kts 287°
2026-04-14 23:56 5.78853 -56.16517 24106 ft 436 kts 287°
2026-04-14 23:56 5.79828 -56.19411 24372 ft 438 kts 287°
2026-04-14 23:57 5.80805 -56.22315 24634 ft 441 kts 287°
2026-04-14 23:57 5.81790 -56.25241 24888 ft 443 kts 287°
2026-04-14 23:57 5.82779 -56.28180 25157 ft 445 kts 287°
2026-04-14 23:57 5.83759 -56.31093 25407 ft 447 kts 287°
2026-04-14 23:58 5.84756 -56.34057 25664 ft 449 kts 287°
2026-04-14 23:58 5.85758 -56.37036 25910 ft 451 kts 287°
2026-04-14 23:58 5.86765 -56.40030 26144 ft 454 kts 287°
2026-04-14 23:58 5.87776 -56.43037 26390 ft 455 kts 287°
2026-04-14 23:59 5.88790 -56.46053 26646 ft 457 kts 287°
2026-04-14 23:59 5.89810 -56.49087 26886 ft 459 kts 287°
2026-04-14 23:59 5.90832 -56.52127 27112 ft 461 kts 287°
2026-04-14 23:59 5.91860 -56.55185 27339 ft 463 kts 287°
2026-04-15 00:00 5.92891 -56.58254 27567 ft 465 kts 287°
2026-04-15 00:00 5.93928 -56.61339 27786 ft 466 kts 287°
2026-04-15 00:00 5.94967 -56.64434 28012 ft 468 kts 287°
2026-04-15 00:00 5.96010 -56.67539 28226 ft 470 kts 287°
2026-04-15 00:01 5.97054 -56.70649 28444 ft 471 kts 287°
2026-04-15 00:01 5.98104 -56.73778 28657 ft 473 kts 287°
2026-04-15 00:01 5.99156 -56.76916 28852 ft 475 kts 287°
2026-04-15 00:01 6.00212 -56.80064 29049 ft 477 kts 287°
2026-04-15 00:02 6.01271 -56.83221 29233 ft 478 kts 287°
2026-04-15 00:02 6.02335 -56.86392 29420 ft 480 kts 287°
2026-04-15 00:02 6.03403 -56.89577 29605 ft 481 kts 287°
2026-04-15 00:02 6.04474 -56.92769 29800 ft 482 kts 287°
2026-04-15 00:03 6.05544 -56.95960 30039 ft 482 kts 287°
2026-04-15 00:03 6.06599 -56.99107 30305 ft 481 kts 287°
2026-04-15 00:03 6.07666 -57.02282 30615 ft 478 kts 287°
2026-04-15 00:03 6.08736 -57.05441 30907 ft 476 kts 287°
2026-04-15 00:04 6.09806 -57.08585 31176 ft 475 kts 287°
2026-04-15 00:04 6.10876 -57.11726 31431 ft 475 kts 287°
2026-04-15 00:04 6.11943 -57.14860 31719 ft 473 kts 287°
2026-04-15 00:04 6.13008 -57.17987 32018 ft 472 kts 287°
2026-04-15 00:05 6.14066 -57.21098 32328 ft 470 kts 287°
2026-04-15 00:05 6.15122 -57.24204 32622 ft 468 kts 287°
2026-04-15 00:05 6.16176 -57.27306 32906 ft 467 kts 287°
2026-04-15 00:05 6.17225 -57.30396 33199 ft 466 kts 286°
2026-04-15 00:06 6.18270 -57.33472 33518 ft 465 kts 286°
2026-04-15 00:06 6.19311 -57.36539 33812 ft 463 kts 286°
2026-04-15 00:06 6.20351 -57.39604 34091 ft 462 kts 286°
2026-04-15 00:06 6.21385 -57.42650 34350 ft 461 kts 286°
2026-04-15 00:07 6.22420 -57.45699 34619 ft 459 kts 286°
2026-04-15 00:07 6.23448 -57.48729 34886 ft 458 kts 286°
2026-04-15 00:07 6.24473 -57.51753 35129 ft 457 kts 286°
2026-04-15 00:07 6.25498 -57.54776 35366 ft 456 kts 286°
2026-04-15 00:08 6.26508 -57.57755 35612 ft 455 kts 286°
2026-04-15 00:08 6.27528 -57.60763 35855 ft 454 kts 286°
2026-04-15 00:08 6.29573 -57.66802 35884 ft 456 kts 286°
2026-04-15 00:09 6.31610 -57.72813 35877 ft 453 kts 286°
2026-04-15 00:09 6.33633 -57.78782 35878 ft 450 kts 286°
2026-04-15 00:10 6.35644 -57.84726 35881 ft 448 kts 286°
2026-04-15 00:10 6.36594 -57.87532 35884 ft 447 kts 286°
2026-04-15 00:11 6.38595 -57.93447 35883 ft 447 kts 286°
2026-04-15 00:11 6.40599 -57.99374 35894 ft 448 kts 286°
2026-04-15 00:12 6.42607 -58.05314 35899 ft 450 kts 286°
2026-04-15 00:12 6.44625 -58.11284 35908 ft 451 kts 286°
2026-04-15 00:13 6.46635 -58.17229 35913 ft 453 kts 286°
2026-04-15 00:13 6.48665 -58.23241 35913 ft 454 kts 286°
2026-04-15 00:14 6.49975 -58.29420 35913 ft 451 kts 272°
2026-04-15 00:14 6.50404 -58.35725 35904 ft 452 kts 271°
2026-04-15 00:15 6.50828 -58.42030 35899 ft 452 kts 272°
2026-04-15 00:15 6.51296 -58.48338 35892 ft 452 kts 272°
2026-04-15 00:16 6.51782 -58.54643 35884 ft 452 kts 272°
2026-04-15 00:16 6.52266 -58.60949 35875 ft 451 kts 272°
2026-04-15 00:17 6.52742 -58.67194 35877 ft 450 kts 272°
2026-04-15 00:17 6.53219 -58.73465 35883 ft 449 kts 272°
2026-04-15 00:18 6.53869 -58.81845 35879 ft 449 kts 272°
2026-04-15 00:19 6.54362 -58.88055 35878 ft 448 kts 272°
2026-04-15 00:19 6.54855 -58.94305 35876 ft 448 kts 272°
2026-04-15 00:20 6.55343 -59.00553 35881 ft 447 kts 272°
2026-04-15 00:20 6.55830 -59.06789 35878 ft 447 kts 272°
2026-04-15 00:21 6.56317 -59.12984 35880 ft 447 kts 272°
2026-04-15 00:21 6.56807 -59.19220 35875 ft 447 kts 272°
2026-04-15 00:22 6.57296 -59.25458 35878 ft 447 kts 272°
2026-04-15 00:22 6.57786 -59.31702 35878 ft 448 kts 272°
2026-04-15 00:23 6.58275 -59.37953 35878 ft 448 kts 272°
2026-04-15 00:23 6.58765 -59.44204 35881 ft 448 kts 272°
2026-04-15 00:24 6.59253 -59.50464 35875 ft 449 kts 272°
2026-04-15 00:24 6.59741 -59.56728 35874 ft 449 kts 272°
2026-04-15 00:25 6.60229 -59.62974 35873 ft 450 kts 272°
2026-04-15 00:25 6.60721 -59.69246 35873 ft 450 kts 272°
2026-04-15 00:26 6.61213 -59.75522 35874 ft 450 kts 272°
2026-04-15 00:26 6.61705 -59.81799 35872 ft 450 kts 272°
2026-04-15 00:27 6.62195 -59.88064 35870 ft 449 kts 272°
2026-04-15 00:27 6.62685 -59.94328 35872 ft 449 kts 272°
2026-04-15 00:28 6.63174 -60.00594 35869 ft 449 kts 272°
2026-04-15 00:28 6.63659 -60.06815 35871 ft 449 kts 272°
2026-04-15 00:29 6.64147 -60.13075 35870 ft 448 kts 272°
2026-04-15 00:29 6.64634 -60.19333 35872 ft 448 kts 272°
2026-04-15 00:30 6.65114 -60.25578 35871 ft 448 kts 272°
2026-04-15 00:30 6.65574 -60.31822 35881 ft 447 kts 272°